Tracking 25709 objects as of 23-May-2022
HD Live streaming from Space Station
objects crossing your sky now

QUANTUTONG 1

Track QUANTUTONG 1 now!
10-day predictions
QUANTUTONG 1 is classified as:


NORAD ID: 43158
Int'l Code: 2018-008D
Perigee: 523.8 km
Apogee: 539.8 km
Inclination: 97.4 °
Period: 95.1 minutes
Semi major axis: 6902 km
RCS: Unknown
Launch date: January 19, 2018
Source: People's Republic of China (PRC)
Launch site: Jiuquan Satellite Launch Center, China (JSC)

Uplink (MHz): 436.100/2415.000/5667.000
Downlink (MHz): 436.100/2415.000/5845.000
Beacon (MHz):
Mode: 9k6 GMSK/5Mbps OFDM
Call sign:
Status: Inactive

aabbcc
Your satellite tracking list
Your tracking list is empty




NASA's NSSDC Master Catalog

Two Line Element Set (TLE):
1 43158U 18008D   22143.11115597  .00009774  00000-0  54387-3 0  9997
2 43158  97.3537 200.2247 0011548 229.4652 186.8298 15.13794260239276
Source of the keplerian elements: AMSAT